EW4799 Weather Reports


time (UTC)temp
F
wind
direction
speed
knots
gust
knots
rain 1hr
in
rain 24hr
in
rain mn
in
humidity
%
barometer
mb
20260508081611 50 0 0.0 0.0 0.00 0.00 0.00 86 1016.8
20260508080053 50 0 0.0 0.0 0.00 0.00 0.00 86 1016.8
20260508074602 50 0 0.0 0.0 0.00 0.00 0.00 86 1016.8
20260508073053 51 0 0.0 0.9 0.00 0.00 0.00 86 1016.9
20260508071554 51 0 0.0 0.0 0.00 0.00 0.00 86 1016.8
20260508070055 51 0 0.0 0.0 0.00 0.00 0.00 86 1017.0
20260508064555 51 0 0.0 0.0 0.00 0.00 0.00 85 1017.1
20260508063058 51 0 0.0 0.0 0.00 0.00 0.00 85 1017.0
20260508061553 52 0 0.0 0.0 0.00 0.00 0.00 84 1017.1
20260508060111 52 0 0.0 0.0 0.00 0.00 0.00 84 1017.2
20260508054638 52 0 0.0 0.0 0.00 0.00 0.00 83 1017.2
20260508053056 52 0 0.0 0.0 0.00 0.00 0.00 81 1017.1
20260508051549 53 0 0.0 0.0 0.00 0.00 0.00 81 1017.0
20260508050057 53 0 0.0 0.0 0.00 0.00 0.00 80 1017.1
20260508044552 54 0 0.0 0.0 0.00 0.00 0.00 79 1017.2
20260508043059 54 0 0.0 0.0 0.00 0.00 0.00 78 1017.3
20260508041553 55 0 0.0 0.0 0.00 0.00 0.00 76 1017.5
20260508040052 56 0 0.0 0.0 0.00 0.00 0.00 75 1017.3
20260508034552 57 0 0.0 0.0 0.00 0.00 0.00 72 1017.2
20260508033052 58 0 0.0 0.0 0.00 0.00 0.00 69 1017.2
20260508031556 60 0 0.0 0.0 0.00 0.00 0.00 67 1017.2
20260508030051 61 0 0.0 0.0 0.00 0.00 0.00 64 1017.3
20260508024603 63 0 0.0 0.0 0.00 0.00 0.00 58 1017.4
20260508023055 66 0 0.0 0.0 0.00 0.00 0.00 52 1017.4
20260508021553 68 158 0.0 1.7 0.00 0.00 0.00 48 1017.5
20260508020104 70 159 0.0 0.9 0.00 0.00 0.00 46 1017.6
20260508014602 70 0 0.0 0.9 0.00 0.00 0.00 46 1017.7
20260508013056 72 0 0.0 0.9 0.00 0.00 0.00 43 1017.7
20260508011615 71 0 0.0 2.6 0.00 0.00 0.00 45 1018.0
20260508010101 71 0 0.0 1.7 0.00 0.00 0.00 46 1018.1
20260508004549 70 0 0.0 1.7 0.00 0.00 0.00 46 1018.2
20260508003054 70 127 0.0 1.7 0.00 0.00 0.00 45 1018.2
20260508001559 70 0 0.0 1.7 0.00 0.00 0.00 46 1018.2
20260508000057 70 164 0.0 4.3 0.00 0.00 0.00 48 1018.4
20260507234548 69 147 0.9 3.5 0.00 0.00 0.00 48 1018.4
20260507233052 69 40 0.0 1.7 0.00 0.00 0.00 49 1018.4
20260507231556 70 0 0.9 2.6 0.00 0.00 0.00 46 1018.5
20260507230050 70 41 0.9 3.5 0.00 0.00 0.00 48 1018.6
20260507224557 71 160 0.0 3.5 0.00 0.00 0.00 46 1018.8
20260507223052 71 0 0.0 4.3 0.00 0.00 0.00 46 1018.9
20260507221551 70 0 0.0 3.5 0.00 0.00 0.00 48 1018.8
20260507220054 69 39 0.0 7.0 0.00 0.00 0.00 49 1018.9
20260507214552 67 134 0.0 1.7 0.00 0.00 0.00 52 1019.2
20260507213054 65 0 0.0 2.6 0.00 0.00 0.00 55 1019.5
20260507211556 65 0 0.9 2.6 0.00 0.00 0.00 53 1019.7
20260507210100 67 186 0.0 3.5 0.00 0.00 0.00 54 1019.8
20260507204552 65 162 0.0 2.6 0.00 0.00 0.00 55 1019.9
20260507203058 65 0 0.9 4.3 0.00 0.00 0.00 54 1020.1
20260507201552 63 0 0.0 2.6 0.00 0.00 0.00 58 1020.2
20260507200051 63 150 0.0 1.7 0.00 0.00 0.00 58 1020.3
20260507194556 62 0 0.0 0.9 0.00 0.00 0.00 61 1020.4
20260507193050 60 0 0.0 1.7 0.00 0.00 0.00 63 1020.5
20260507191554 60 214 0.0 1.7 0.00 0.00 0.00 64 1020.6
20260507190054 60 0 0.0 1.7 0.00 0.00 0.00 63 1020.7
20260507184555 59 0 0.0 0.9 0.00 0.00 0.00 65 1020.7
20260507183053 58 0 0.0 1.7 0.00 0.00 0.00 66 1020.9
20260507181551 58 0 0.0 0.9 0.00 0.00 0.00 66 1021.0
20260507180100 58 0 0.0 1.7 0.00 0.00 0.00 68 1021.0
20260507174606 57 0 0.0 1.7 0.00 0.00 0.00 69 1021.2
20260507173050 56 165 0.0 1.7 0.00 0.00 0.00 71 1021.2
20260507171603 55 156 0.0 1.7 0.00 0.00 0.00 72 1021.1
20260507170051 55 0 0.0 1.7 0.00 0.00 0.00 74 1021.1
20260507164553 54 174 0.0 2.6 0.00 0.00 0.00 74 1021.2
20260507163053 54 0 0.0 1.7 0.00 0.00 0.00 75 1021.1
20260507161602 54 181 0.9 3.5 0.00 0.00 0.00 75 1021.4
20260507160054 54 185 0.0 1.7 0.00 0.00 0.00 76 1021.5
20260507154551 53 175 0.9 2.6 0.00 0.00 0.00 78 1021.6
20260507153101 53 176 0.0 1.7 0.00 0.00 0.00 79 1021.6
20260507151549 52 0 0.0 1.7 0.00 0.00 0.00 80 1021.6
20260507150051 52 0 0.0 0.9 0.00 0.00 0.00 82 1021.6
20260507144554 51 0 0.0 0.9 0.00 0.00 0.00 83 1021.6
20260507143052 51 0 0.0 0.9 0.00 0.00 0.00 84 1021.6
20260507141551 50 0 0.0 0.0 0.00 0.00 0.00 85 1021.6
20260507140107 50 0 0.0 0.0 0.00 0.00 0.00 85 1021.4
20260507134549 49 0 0.0 0.9 0.00 0.00 0.00 86 1021.4
20260507133055 48 0 0.0 0.0 0.00 0.00 0.00 87 1021.3
20260507131552 48 0 0.0 0.0 0.00 0.00 0.00 87 1021.3
20260507130104 48 0 0.0 0.9 0.00 0.00 0.00 87 1021.4
20260507124624 48 0 0.0 0.9 0.00 0.00 0.00 87 1021.2
20260507123052 49 0 0.0 0.0 0.00 0.00 0.00 86 1021.2
20260507121551 50 0 0.0 0.0 0.00 0.00 0.00 86 1021.1
20260507120050 51 0 0.0 0.0 0.00 0.00 0.00 85 1021.2
20260507114608 51 0 0.0 0.0 0.00 0.00 0.00 85 1021.3
20260507113056 52 0 0.0 0.0 0.00 0.00 0.00 85 1021.4
20260507111553 52 0 0.0 0.0 0.00 0.00 0.00 85 1021.6
20260507110057 52 0 0.0 0.0 0.00 0.00 0.00 84 1021.7
20260507104557 52 0 0.0 0.0 0.00 0.00 0.00 83 1021.6
20260507103055 52 0 0.0 0.0 0.00 0.00 0.00 83 1021.8
20260507101557 53 0 0.0 0.0 0.00 0.00 0.00 83 1021.8
20260507100055 52 0 0.0 1.7 0.00 0.00 0.00 83 1021.8
20260507094554 52 0 0.0 0.9 0.00 0.00 0.00 84 1021.9
20260507093053 52 0 0.0 0.0 0.00 0.00 0.00 84 1021.8
20260507091553 52 0 0.0 0.9 0.00 0.00 0.00 84 1021.7
20260507090055 52 0 0.0 0.9 0.00 0.00 0.00 84 1021.7
20260507084553 52 0 0.0 0.9 0.00 0.00 0.00 85 1021.7
20260507083050 52 0 0.0 1.7 0.00 0.00 0.00 85 1021.7